Weather History for KGPI - July, 2013

Change the Weather History Date:

Sunday, July 14, 2013

  Actual Average Record
Temperature  
Mean Temperature 64 °F 65 °F  
Max Temperature 83 °F 81 °F 98 °F (2007)
Min Temperature 44 °F 48 °F 37 °F (1969)
Degree Days  
Heating Degree Days 1 2  
Month to date heating degree days 16 48  
Since 1 June heating degree days 202 264  
Since 1 July heating degree days 16 48  
Cooling Degree Days 0 2  
Month to date cooling degree days 46 20  
Year to date cooling degree days 65 36  
Since 1 June cooling degree days 65 33  
Growing Degree Days 13 (Base 50)    
Moisture  
Dew Point 41 °F    
Average Humidity 51    
Maximum Humidity 83    
Minimum Humidity 18    
Precipitation  
Precipitation 0.00 in 0.05 in 0.43 in (1988)
Month to date precipitation 0.30 0.84  
Year to date precipitation 9.31 10.01  
Snow  
Snow 0.00 in - - ()
Month to date snowfall 0.0  
Year to date snowfall 10.1  
Since 1 July snowfall 0.0  
Snow Depth 0.00 in    
Sea Level Pressure  
Sea Level Pressure 30.04 in    
Wind  
Wind Speed 4 mph (SSE)    
Max Wind Speed 15 mph    
Max Gust Speed 18 mph    
Visibility 10 miles    
Events      
T = Trace of Precipitation, MM = Missing Value Source: NWS Daily Summary

Daily Weather History Graph

Daily Weather History Graph

Search for Another Location

Airport or City:

Trip Planner

Search our weather history database for the weather conditions in past years. The results will help you decide how hot, cold, wet, or windy it might be!

Date:

Astronomy

Jul. 14, 2013 Rise Set
Actual Time 5:51 AM MDT 9:34 PM MDT
Civil Twilight 5:11 AM MDT 10:13 PM MDT
Nautical Twilight 4:17 AM MDT 11:07 PM MDT
Astronomical Twilight 2:59 AM MDT 12:23 AM MDT
Moon 12:47 PM MDT (7/14) No Moon Set
Length of Visible Light 17h 02m
Length of Day
15h 42m
Waxing Crescent, 35% of the Moon is Illuminated
Jul 14
Waxing Crescent
Jul 15
First Quarter
Jul 22
Full
Jul 29
Last Quarter
Aug 6
New

Hourly Weather History & Observations

Time (MDT) Temp. Dew Point Humidity Pressure Visibility Wind Dir Wind Speed Gust Speed Precip Events Conditions
12:55 AM 48.0 °F 42.1 °F 80% 30.10 in 10.0 mi North - - N/A   Clear
1:55 AM 48.9 °F 42.1 °F 77% 30.10 in 10.0 mi WNW 3.5 mph - N/A   Clear
2:55 AM 48.9 °F 39.9 °F 71% 30.10 in 10.0 mi WNW 3.5 mph - N/A   Clear
3:55 AM 46.9 °F 41.0 °F 80% 30.10 in 10.0 mi Calm Calm - N/A   Clear
4:55 AM 48.0 °F 42.1 °F 80% 30.10 in 10.0 mi Calm Calm - N/A   Clear
5:55 AM 44.1 °F 39.9 °F 85% 30.11 in 10.0 mi Calm Calm - N/A   Clear
6:55 AM 51.1 °F 44.1 °F 77% 30.11 in 10.0 mi Calm Calm - N/A   Clear
7:55 AM 55.9 °F 45.0 °F 67% 30.11 in 10.0 mi Calm Calm - N/A   Clear
8:55 AM 62.1 °F 43.0 °F 50% 30.11 in 10.0 mi North 4.6 mph - N/A   Clear
9:55 AM 66.0 °F 45.0 °F 47% 30.12 in 10.0 mi ENE 5.8 mph - N/A   Clear
10:55 AM 68.0 °F 45.0 °F 43% 30.12 in 10.0 mi SE 3.5 mph - N/A   Clear
11:55 AM 72.0 °F 43.0 °F 35% 30.10 in 10.0 mi SSE 10.4 mph - N/A   Clear
12:55 PM 75.0 °F 42.1 °F 31% 30.08 in 10.0 mi SSE 9.2 mph - N/A   Clear
1:55 PM 78.1 °F 37.0 °F 23% 30.06 in 10.0 mi South 6.9 mph - N/A   Clear
2:55 PM 80.1 °F 37.0 °F 21% 30.04 in 10.0 mi SSE 12.7 mph 18.4 mph N/A   Clear
3:55 PM 81.0 °F 39.0 °F 22% 30.02 in 10.0 mi SSE 10.4 mph - N/A   Clear
4:55 PM 82.0 °F 37.9 °F 21% 29.99 in 10.0 mi SSE 10.4 mph - N/A   Clear
5:55 PM 82.9 °F 36.0 °F 19% 29.97 in 10.0 mi South 8.1 mph - N/A   Clear
6:55 PM 82.0 °F 37.9 °F 21% 29.94 in 10.0 mi South 10.4 mph - N/A   Clear
7:55 PM 81.0 °F 37.9 °F 21% 29.91 in 10.0 mi South 3.5 mph - N/A   Clear
8:55 PM 73.0 °F 45.0 °F 37% 29.91 in 10.0 mi WNW 3.5 mph - N/A   Clear
9:55 PM 64.0 °F 44.1 °F 48% 29.92 in 10.0 mi Calm Calm - N/A   Clear
10:55 PM 55.0 °F 45.0 °F 69% 29.94 in 10.0 mi Calm Calm - N/A   Clear
11:55 PM 52.0 °F 44.1 °F 74% 29.94 in 10.0 mi Calm Calm - N/A   Clear